Other Public Products
Issued by NWS Charleston, SC

Current Version | Previous Version | Graphics & Text | Print | Product List | Glossary On
Versions: 1 2 3 4 5 6 7 8 9 10 11 12 13 14 15 16 17 18 19 20 21 22 23 24 25 26 27 28 29 30 31 32 33 34 35 36 37 38 39 40 41 42 43 44 45 46 47 48 49 50
000
FPUS82 KCHS 241127
OPUCHS

TEST...KCHS/KSAV Gateway Observations...TEST
National Weather Service Charleston SC
700 AM EDT WED MAY 24 2017

NOTE: "fair" indicates few or no clouds below 12,000 feet with no
significant weather and/or obstructions to visibility.

SCZ050-WAZ558-NCZ071-TXZ119-213-PAZ071-DCZ001-FLZ074-172-MI076-
NYZ176-178-MAZ016-IL014-TNZ027-NJZ106-GAZ044-MD014-241200-

...Gateway Observations for Charleston International...

CITY           SKY/WX    TMP DP  RH WIND       PRES   REMARKS
Chas Airport   PTCLDY    70  68  93 SW8       29.69R
Seattle        MOCLDY    49  39  68 S8        30.06F
Charlotte      CLOUDY    65  61  87 S6        29.67R
Dallas DFW     PTCLDY    59  48  67 NW13      29.82F
Dallas Love    PTCLDY    57  49  74 NW7       29.83F
Philladelphia  CLOUDY    59  52  77 NE9       29.72R
Wash National  CLOUDY    58  54  86 NE8       29.73R
Baltimore      PTSUNNY   57  55  93 N5        29.72R
Miami          MOCLDY    81  75  82 S9        29.86F
Detroit        CLOUDY    58  50  75 NE9       29.61S
Newark         CLOUDY    58  55  90 NE5       29.73F
Laguardia      CLOUDY    58  53  84 NE5       29.74R
J F K          CLOUDY    58  57  97 N5        29.75R
Boston Logan   CLOUDY    56  54  93 E5        29.78S
Ft. Lauderdale MOCLDY    81  74  79 S6        29.85S
Chicago O`Hare LGT RAIN  54  52  93 NE10      29.59F FOG
Chicago Midway LGT RAIN  55  54  96 N10       29.58F FOG
Houston Bush   CLEAR     59  54  83 W8        29.83R
Houston Hobby  PTCLDY    60  54  80 NW7       29.83R
Nashville      LGT RAIN  62  60  93 SW5       29.54S
Atlanta        CLOUDY    66  65  96 S7        29.62S

$$

GAZ044-118-TXZ119-213-NCZ071-DCZ001-MDZ014-506-PAZ021-071-NJZ106-
NYZ176-178-MAZ106-OHZ011-021-055-MIZ076-KYZ091-ILZ014-INZ047-
MNZ060-ONZ431-241200-

...Gateway Observations for Savannah International...

CITY           SKY/WX    TMP DP  RH WIND       PRES   REMARKS
Savannah Arpt  MOCLDY    73  68  84 SW10      29.70F
Atlanta        CLOUDY    66  65  96 S7        29.62S
Charlotte      CLOUDY    65  61  87 S6        29.67R
Dallas DFW     PTCLDY    59  48  67 NW13      29.82F
Houston Bush   CLEAR     59  54  83 W8        29.83R
Wash National  CLOUDY    58  54  86 NE8       29.73R
Wash Dulles    CLOUDY    57  54  89 E3        29.74R
Baltimore      PTSUNNY   57  55  93 N5        29.72R
Philadelphia   CLOUDY    59  52  77 NE9       29.72R
Newark         CLOUDY    58  55  90 NE5       29.73F
Laguardia      CLOUDY    58  53  84 NE5       29.74R
J F K          CLOUDY    58  57  97 N5        29.75R
Boston         CLOUDY    56  54  93 E5        29.78S
Pittsburg      CLOUDY    58  54  86 E6        29.66R
Akron          CLOUDY    60  54  80 E7        29.64R
Cleveland      MOCLDY    63  56  78 SE8       29.63S
Cincinnati     CLOUDY    60  58  92 E7        29.53F
Columbus       CLOUDY    59  60 100 E5        29.58S
Detroit        CLOUDY    58  50  75 NE9       29.61S
Chicago O`Hare LGT RAIN  54  52  93 NE10      29.59F FOG
Minneapolis    PTCLDY    47  42  83 NE9       29.78S
Indianapolis   CLOUDY    58  56  93 NW5       29.54R FOG
Toronto Canada PTSUNNY   57  50  77 NE8       29.70S

$$




USA.gov is the U.S. government's official web portal to all federal, state and local government web resources and services.